Miscellaneous Local Product
Issued by NWS North Platte, NE

Home | Current Version | Previous Version | Text Only | Print | Product List | Glossary On
Versions: 1 2 3 4 5 6 7 8 9 10 11 12 13 14 15 16 17 18 19 20 21 22 23 24 25 26 27 28 29 30 31 32 33 34 35 36 37 38 39 40 41 42 43 44 45 46 47 48 49 50
000
AXUS43 KLBF 311010
MISLBF


WESTERN AND NORTH CENTRAL NEBRASKA HOURLY WEATHER ROUNDUP
NATIONAL WEATHER SERVICE NORTH PLATTE NE
500 AM CDT FRI OCT 31 2014

***STATIONS NOT REPORTING VARIABLES SUCH AS SKY/WEATHER OR
PRESSURE ARE PROVIDED BY THE NEBRASKA DEPARTMENT OF
ROADS...RAWS...AND APRS NETWORKS...AND ARE NOT UNDER
NATIONAL WEATHER SERVICE QUALITY CONTROL***

...OBSERVATIONS IN AND NEAR THE EASTERN PANHANDLE OF NEBRASKA...

CITY           SKY/WX    TMP DP  RH WIND       PRES   REMARKS
PINE RIDGE     CLOUDY    29  28  96 SE8       30.46F WCI  21
CHADRON        FOG       22  21  96 CALM      30.44F VSB 1/2
ALLIANCE       PTCLDY    22  21  96 SE6       30.43F FOG     WCI  14
SIDNEY         PTCLDY    25  23  92 SE7       30.43F WCI  17
WHITECLAY        N/A     27  25  94 SE7         N/A  WCI  19
RUSHVILLE        N/A     24  24  99 S13         N/A  WCI  12
LISCO            N/A     29  26  86 E6          N/A  WCI  23
LEWELLEN         N/A     25  23  93 CALM        N/A
$$

...OBSERVATIONS IN NORTH CENTRAL NEBRASKA...

CITY           SKY/WX    TMP DP  RH WIND       PRES   REMARKS
VALENTINE      CLOUDY    29  24  82 NE8       30.53S WCI  21
THEDFORD       CLOUDY    31  28  90 NE8       30.51S WCI  24
AINSWORTH      CLOUDY    28  22  80 N3        30.53S
O`NEILL        CLEAR     24  21  89 N6        30.55R WCI  17
ORD            CLOUDY    30  22  72 N10       30.52S WCI  21
BROKEN BOW     CLOUDY    33  26  75 NE12      30.50S WCI  24
SPRINGVIEW       N/A     26  20  77 CALM        N/A
ROSE             N/A     30  27  86 N9          N/A  WCI  22
NEWPORT          N/A     29  26  88 CALM        N/A
SARGENT          N/A     31  25  78 NE3         N/A
COMSTOCK         N/A     33  27  77 N7          N/A  WCI  27
CHAMBERS         N/A     28  18  66 N7          N/A  WCI  21
$$

...OBSERVATIONS IN SOUTHWEST NEBRASKA AND FAR NORTHEAST COLORADO...

CITY           SKY/WX    TMP DP  RH WIND       PRES   REMARKS
WRAY           FAIR      31  29  91 CALM      30.46S
HOLYOKE        FAIR      28  25  86 CALM      30.46F
IMPERIAL       PTCLDY    27  23  85 N6        30.47F WCI  20
OGALLALA       MOCLDY    27  25  95 NE5       30.47F WCI  21
NORTH PLATTE   CLOUDY    32  29  88 NE10      30.49S WCI  24
MCCOOK         MOCLDY    30  28  92 N7        30.49S WCI  23
LEXINGTON      CLOUDY    33  29  84 NE15      30.50S WCI  23
PAXTON           N/A     29  26  88 N3          N/A
SUTHERLAND       N/A     26  24  93 E10         N/A  WCI  15
BRADY            N/A     31  27  84 CALM        N/A
GOTHENBURG       N/A     31  27  85 N6          N/A  WCI  25
CALLAWAY         N/A     30  28  90 NE8         N/A  WCI  22
$$

...SOME WEATHER OBSERVATIONS FROM AROUND THE REGION...

CITY           SKY/WX    TMP DP  RH WIND       PRES   REMARKS
DENVER         CLEAR     35  26  69 S8        30.34F WCI  29
LARAMIE        PTCLDY    33  24  69 S18       30.30F WCI  22
CHEYENNE       PTCLDY    33  27  78 S13       30.36F WCI  24
SCOTTSBLUFF    PTCLDY    31  29  92 E9        30.42F WCI  23
RAPID CITY     CLOUDY    31  30  96 S12       30.44F FOG     WCI  22
PIERRE         PTCLDY    16  14  92 NE3       30.56F
WINNER         FAIR      24  20  84 W3        30.56S
SIOUX FALLS    PTCLDY    21  17  84 NW6       30.53R WCI  13
OMAHA          PTCLDY    31  22  69 N12       30.48S WCI  22
GRAND ISLAND   CLOUDY    35  25  66 NE10      30.52R WCI  27
KANSAS CITY    CLOUDY    41  32  70 N23G30    30.35R
WICHITA        CLOUDY    47  38  71 N15G25    30.36S
HAYS           CLEAR     36  27  69 N13       30.46R WCI  27
LIBERAL        CLEAR     39  28  65 N7        30.44R WCI  34
GOODLAND       CLEAR     28  25  88 CALM      30.47S
$$



USA.gov is the U.S. government's official web portal to all federal, state and local government web resources and services.